This demonstration page uses our WeatherBlox Daily Observations layout. Learn more.

Left ArrowRight Arrow

Hourly Observations for September 19, 2019

Temp ( °F °C ) Dew Point ( °F °C ) Humidity (%) Winds ( mph kmh ) Pressure ( in mb ) Visibility ( mi km ) Precip ( " mm )
12:54 am 00:54 Mostly Cloudy 74 23.3 68 20 82 82 S 7 11 29.89 1012 10 16 0.00 0.00
1:54 am 01:54 Partly Cloudy 75 23.9 68 20 79 79 SSE 6 9 29.90 1013 10 16 0.00 0.00
2:54 am 02:54 Mostly Clear 74 23.3 68 20 82 82 S 7 11 29.89 1012 10 16 0.00 0.00
3:54 am 03:54 Mostly Cloudy 73 22.8 67 19.4 81 81 S 6 9 29.89 1012 10 16 0.00 0.00
4:54 am 04:54 Cloudy 74 23.3 68 20 82 82 NE 20 31 29.92 1013 10 16 0.00 0.00
5:54 am 05:54 Cloudy with Nearby Thunderstorms 68 20 62 16.7 81 81 ENE 20 31 29.96 1015 10 16 0.00 0.00
6:09 am 06:09 Cloudy with Light Rain 67 19.4 63 17.2 87 87 ENE 21 33 29.98 1015 10 16 0.01 0.25
6:54 am 06:54 Cloudy with Light Rain 67 19.4 63 17.2 87 87 ENE 13 20 29.99 1016 10 16 0.01 0.25
7:01 am 07:01 Cloudy with Thunderstorms 67 19.4 63 17.2 87 87 ENE 15 24 29.99 1016 10 16 0.00 0.00
7:44 am 07:44 Cloudy 66 18.9 63 17.2 90 90 ENE 21 33 30.01 1016 10 16 0.00 0.00
7:54 am 07:54 Cloudy with Nearby Thunderstorms 66 18.9 63 17.2 90 90 E 14 22 30.01 1016 5 8 0.07 1.78
8:03 am 08:03 Cloudy with Thunderstorms 66 18.9 63 17.2 90 90 E 14 22 30.01 1016 10 16 0.00 0.00
8:26 am 08:26 Cloudy with Nearby Thunderstorms 66 18.9 63 17.2 90 90 NNE 6 9 30.02 1017 7 11 0.09 2.29
8:39 am 08:39 Cloudy 66 18.9 63 17.2 90 90 E 10 17 30.01 1016 10 16 0.09 2.29
8:54 am 08:54 Cloudy 66 18.9 64 17.8 93 93 E 6 9 30.01 1016 10 16 0.09 2.29
9:54 am 09:54 Mostly Sunny 69 20.6 65 18.3 87 87 SE 12 19 29.98 1015 10 16 0.02 0.51
10:54 am 10:54 Sunny 71 21.7 64 17.8 79 79 SE 12 19 29.98 1015 10 16 0.00 0.00
11:54 am 11:54 Sunny 81 27.2 67 19.4 62 62 SSE 15 24 29.96 1014 10 16 0.00 0.00
12:54 pm 12:54 Sunny 84 28.9 68 20 59 59 SSE 17 28 29.94 1014 10 16 0.00 0.00
1:54 pm 13:54 Sunny 88 31.1 69 20.6 54 54 SSE 13 20 29.92 1013 10 16 0.00 0.00
2:54 pm 14:54 Sunny 89 31.7 69 20.6 52 52 SSE 16 26 29.91 1013 10 16 0.00 0.00
3:54 pm 15:54 Mostly Sunny 90 32.2 69 20.6 50 50 S 17 28 29.89 1012 10 16 0.00 0.00
4:54 pm 16:54 Sunny 89 31.7 69 20.6 52 52 SSE 14 22 29.88 1012 10 16 0.00 0.00
5:54 pm 17:54 Sunny 88 31.1 69 20.6 54 54 SSE 10 17 29.88 1012 10 16 0.00 0.00
6:54 pm 18:54 Sunny 86 30 70 21.1 59 59 SE 13 20 29.87 1012 10 16 0.00 0.00
7:54 pm 19:54 Clear 83 28.3 69 20.6 63 63 SSE 8 13 29.89 1012 10 16 0.00 0.00
8:54 pm 20:54 Clear 82 27.8 69 20.6 65 65 SSE 10 17 29.90 1013 10 16 0.00 0.00
9:54 pm 21:54 Clear 80 26.7 69 20.6 69 69 S 10 17 29.91 1013 10 16 0.00 0.00
10:54 pm 22:54 Clear 77 25 69 20.6 77 77 SSE 12 19 29.91 1013 10 16 0.00 0.00
11:54 pm 23:54 Clear 75 23.9 68 20 79 79 S 10 17 29.93 1013 10 16 0.00 0.00

Powered by AerisWeather